Home > Weather > Saint-Étienne > Past weeks

Flag for France Weather for the Past 2 Weeks in Saint-Étienne, Rhône-Alpes, France

Now
66 °F

Passing clouds.


Feels Like: 66 °F
Forecast: 53 / 70 °F
Wind: 18 mph from South

Location: St-Etienne Boutheon

Current Time: May 6, 2016 at 11:22:25 AM

Latest Report: May 6, 2016 at 11:00 AM


Visibility: N/A

Pressure: 29.95 "Hg (28.15 "Hg at 529m altitude)

Humidity: 32%

Dew Point: 36 °F

Location of Saint-ÉtienneLocation

Historic Weather in Saint-Étienne — Graph

°F

Saint-Étienne Temperature Yesterday

Maximum temperature yesterday: 73 °F (at 5:30 PM)
Minimum temperature yesterday: 36 °F (at 6:00 AM)
Average temperature yesterday: 55 °F

High & Low Weather Summary for the Past Weeks

 TemperatureHumidityPressure
High73 °F (May 5, 5:30 PM)100% (Apr 23, 2:30 AM)30.30 "Hg (Apr 23, 2:30 AM)
Low34 °F (Apr 28, 7:00 AM)20% (May 4, 3:00 PM)29.77 "Hg (Apr 26, 3:00 PM)
Average49 °F66%30.04 "Hg
* Reported Apr 21 10:00 AM — May 6 10:00 AM, Saint-Étienne, Weather by CustomWeather, © 2016

Note: Actual official high and low records may vary slightly from our data, if they occured in-between our weather recording intervals... More about our weather records

Advertising

Saint-Étienne Weather History for the Previous 24 Hours

Scroll right to see more
 ConditionsComfort  
Time TempWeatherWind HumidityBarometerVisibility
10:00 AM
Fri, May 6
64 °FSunny.17 mph40%29.95 "Hg10 mi
9:30 AM63 °FSunny.14 mph42%29.95 "Hg10 mi
9:00 AM61 °FPassing clouds.8 mph45%29.95 "HgN/A
8:30 AM59 °FPassing clouds.6 mph45%29.98 "HgN/A
8:00 AM57 °FSunny.6 mph48%29.98 "Hg10 mi
7:30 AM55 °FSunny.7 mph51%29.95 "Hg10 mi
7:00 AM54 °FClear.9 mph51%29.95 "Hg10 mi
6:30 AM52 °FClear.8 mph54%29.95 "Hg10 mi
6:00 AM52 °FClear.8 mph54%29.95 "Hg10 mi
5:30 AM52 °FClear.9 mph50%29.95 "Hg10 mi
5:00 AM52 °FClear.7 mph50%29.98 "Hg10 mi
4:30 AM54 °FClear.7 mph51%29.98 "Hg10 mi
4:00 AM54 °FPassing clouds.5 mph51%29.98 "HgN/A
3:30 AM54 °FClear.5 mph51%29.98 "Hg10 mi
3:00 AM54 °FClear.7 mph51%29.98 "Hg10 mi
2:30 AM55 °FClear.7 mph51%29.98 "Hg10 mi
2:00 AM55 °FClear.9 mph51%29.98 "Hg10 mi
1:30 AM55 °FClear.8 mph47%30.01 "Hg10 mi
1:00 AM55 °FClear.9 mph44%30.01 "Hg10 mi
12:30 AM57 °FClear.10 mph41%30.01 "Hg10 mi
12:00 AM57 °FClear.10 mph41%30.01 "Hg10 mi
11:30 PM
Thu, May 5
59 °FClear.6 mph42%29.98 "Hg10 mi
11:00 PM59 °FClear.7 mph42%29.98 "Hg10 mi
10:30 PM61 °FClear.8 mph36%29.98 "Hg10 mi
10:00 PM63 °FClear.12 mph34%29.98 "Hg10 mi
9:30 PM64 °FSunny.13 mph32%29.98 "Hg10 mi
9:00 PM66 °FSunny.7 mph30%29.95 "Hg10 mi
8:30 PM68 °FSunny.13 mph26%29.95 "Hg10 mi
8:00 PM72 °FSunny.15 mph27%29.92 "Hg10 mi
7:30 PM73 °FPassing clouds.15 mph25%29.92 "HgN/A
7:00 PM73 °FPassing clouds.7 mph25%29.92 "HgN/A
6:30 PM73 °FPassing clouds.8 mph29%29.92 "HgN/A
6:00 PM73 °FPassing clouds.7 mph29%29.92 "HgN/A
5:30 PM73 °FPassing clouds.8 mph33%29.95 "HgN/A
5:00 PM72 °FPassing clouds.9 mph33%29.95 "HgN/A
4:30 PM72 °FPassing clouds.8 mph33%29.95 "HgN/A
4:00 PM72 °FPassing clouds.8 mph31%29.95 "HgN/A
3:30 PM72 °FPassing clouds.8 mph31%29.98 "HgN/A
3:00 PM72 °FSunny.6 mph33%29.98 "Hg10 mi
2:00 PM68 °FSunny.2 mph35%30.01 "Hg10 mi
1:30 PM66 °FSunny.5 mph35%30.01 "Hg10 mi
1:00 PM66 °FSunny.No wind35%30.01 "Hg10 mi
12:30 PM64 °FSunny.2 mph40%30.04 "Hg10 mi
12:00 PM63 °FSunny.3 mph39%30.04 "Hg10 mi
11:30 AM59 °FSunny.2 mph45%30.04 "Hg10 mi
11:00 AM57 °FSunny.1 mph48%30.04 "Hg10 mi
Weather by CustomWeather, © 2016

See weather overviewHow to use our weather pages